Current Weather Conditions: station LEBT

sailwx.info

See reports from other nearby stations

no recent reports received from weather station ID LEBT

Tides Pressure Air temp Water temp Dewpoint Dewpoint depression Visibility Wind speed Wind direction Waves Ship positions
date/time (UTC)wind fromknots sea level pressurealtimeterstation pressurevisibilityair tempwater tempwave heightnotes
2017-Jan-21 05:00 010 5 4.3 8.0
2017-Jan-21 04:00 020 6 gusting 15 1.4 8.0 Mist.
2017-Jan-21 03:00 5.4 8.0
2017-Jan-21 02:00 5.4 8.0
2017-Jan-21 01:00 010 6 3.2 8.0
2017-Jan-21 00:00 010 4 2.4 8.0 Mist.
2017-Jan-20 23:00 020 0 0.9 8.0 Mist.
2017-Jan-20 22:00 030 1 1.1 8.0 Mist.
2017-Jan-20 21:00 310 1 0.9 7.0 Mist.
2017-Jan-20 20:00 0.6 6.0 Mist.
2017-Jan-20 19:00 300 6 2.2 6.0 Mist.
2017-Jan-20 18:00 300 6 1.3 6.0 Mist.
2017-Jan-20 17:00 290 6 4.9 6.0
2017-Jan-20 16:00 290 4 2.7 7.0 Mist.
2017-Jan-20 15:00 310 5 5.4 7.0
2017-Jan-20 14:00 320 5 4.3 7.0
2017-Jan-20 13:00 340 5 1.1 7.0 Mist.
2017-Jan-20 12:00 350 5 0.6 7.0 Mist.
2017-Jan-20 11:00 150 6 0.4 8.0 Fog.
2017-Jan-20 10:00 020 6 2.6 8.0 Mist.
2017-Jan-20 09:00 020 9 gusting 20 1.7 8.0 Mist.
2017-Jan-20 08:00 030 9 5.4 8.0
2017-Jan-20 07:00 020 8 gusting 21 5.4 8.0
2017-Jan-20 06:00 020 8 gusting 21 5.4 8.0
2017-Jan-20 05:00 030 8 5.4 7.0
2017-Jan-20 04:00 040 6 5.4 7.0
2017-Jan-20 03:00 020 6 5.4 6.0
2017-Jan-20 02:00 020 6 0.8 6.0
2017-Jan-20 01:00 030 7 0.6 7.0 Mist.
2017-Jan-20 00:00 020 6 0.6 7.0 Mist.
2017-Jan-19 22:00 280 6 0.5 5.0
2017-Jan-19 21:00 040 13 gusting 27 5.4 8.0
2017-Jan-19 20:00 050 13 gusting 32 0.5 7.0
2017-Jan-19 19:00 020 11 gusting 22 0.5 5.0 Fog.
2017-Jan-19 18:00 020 13 gusting 25 1.4 5.0 Mist.
2017-Jan-19 17:00 020 13 gusting 27 0.6 4.0
2017-Jan-19 16:00 030 14 gusting 31 0.5 5.0
2017-Jan-19 15:00 0.4 5.0 Fog.
2017-Jan-19 14:00 020 17 gusting 34 0.6 5.0
2017-Jan-19 13:00 030 14 gusting 27 0.6 6.0 Mist.
2017-Jan-19 12:00 030 13 gusting 27 5.4 8.0
2017-Jan-19 11:00 030 13 gusting 26 5.4 9.0
2017-Jan-19 10:00 030 13 gusting 31 5.4 9.0
2017-Jan-19 09:00 030 12 gusting 25 5.4 9.0
2017-Jan-19 08:00 040 11 gusting 25 5.4 8.0
2017-Jan-19 07:00 030 6 gusting 17 5.4 8.0
2017-Jan-19 06:00 030 6 5.4 7.0